Powrót do katalogu

SL-16 DEB

AktywnyLEO
NORAD 22293·DEBRIS·🇷🇺 Russia

Wystrzelony Dec 25, 1992 z Baikonur Cosmodrome

Loading…

Następne Przeloty (najbliższe 24 godziny)

TLE

ŚwieżeSource: Space-Track

Epoka: Sep 14, 2026, 07:08 UTC

1 22293U 92093H   26257.29763281  .00000058  00000-0  91622-4 0  9998
2 22293  71.0531 275.8414 0194450 125.7972 236.1377 13.74726513684853

Śledź SL-16 DEB w czasie rzeczywistym z AllMySat

Download on the App Store